1483236000.64,27950,9.56,73814.0,-6.61,-37.81,-38.29,0,*55
1483236001.89,27951,9.56,73812.8,-6.63,-37.63,-38.05,0,*54
1483236003.13,27952,9.56,73822.5,-6.63,-37.87,-38.43,0,*5F
1483236004.39,27953,9.56,73822.8,-6.63,-37.63,-38.05,0,*56
1483236005.68,27954,9.56,73816.3,-6.63,-37.81,-38.29,0,*53
1483236006.95,27955,9.56,73818.8,-6.61,-37.81,-38.23,0,*5A
1483236008.18,27956,9.56,73814.8,-6.63,-37.45,-37.87,0,*52
1483236009.44,27957,9.56,73814.5,-6.63,-37.27,-37.69,0,*57
1483236010.7,27958,9.56,73812.8,-6.61,-37.69,-38.23,0,*51
1483236011.95,27959,9.56,73812.3,-6.63,-37.45,-37.93,0,*58
1483236013.19,27960,9.56,73812.5,-6.63,-37.45,-37.87,0,*57
1483236014.45,27961,9.56,73814.0,-6.61,-37.69,-38.23,0,*5B
1483236015.7,27962,9.56,73814.8,-6.61,-37.51,-37.93,0,*57
1483236016.98,27963,9.56,73814.8,-6.63,-37.69,-38.11,0,*5A
1483236018.24,27964,9.56,73812.3,-6.61,-37.63,-38.11,0,*55
1483236019.45,27965,9.56,73814.0,-6.61,-37.45,-37.87,0,*50
1483236020.73,27966,9.56,73814.5,-6.63,-37.63,-37.93,0,*50
1483236021.99,27967,9.56,73810.0,-6.63,-37.51,-37.87,0,*55
1483236023.22,27968,9.56,73808.5,-6.61,-37.63,-38.05,0,*5C
1483236024.45,27969,9.56,73810.3,-6.61,-37.51,-38.05,0,*5C
1483236025.67,27970,9.56,73816.0,-6.61,-37.63,-38.05,0,*55
1483236026.93,27971,9.56,73816.8,-6.61,-37.63,-37.93,0,*54
1483236028.18,27972,9.56,73814.5,-6.61,-37.63,-38.11,0,*52
1483236029.47,27973,9.56,73816.3,-6.63,-37.69,-38.23,0,*5A
1483236030.7,27974,9.56,73812.5,-6.61,-37.51,-38.05,0,*50
1483236031.95,27975,9.56,73816.0,-6.61,-37.69,-38.11,0,*5F
1483236033.19,27976,9.56,73818.8,-6.61,-37.87,-38.29,0,*57
1483236034.46,27977,9.56,73822.0,-6.61,-37.81,-38.23,0,*5A
1483236035.73,27978,9.56,73820.5,-6.63,-37.87,-38.29,0,*5B
1483236037.0,27979,9.56,73816.3,-6.59,-37.81,-38.23,0,*5F
1483236038.26,27980,9.56,73816.8,-6.63,-37.45,-37.81,0,*5F
1483236039.5,27981,9.56,73816.5,-6.61,-37.87,-38.29,0,*5F
1483236040.79,27982,9.56,73818.5,-6.63,-37.81,-38.23,0,*52
1483236042.06,27983,9.56,73816.0,-6.63,-37.27,-37.81,0,*58
1483236043.28,27984,9.56,73820.3,-6.61,-37.45,-37.93,0,*5A
1483236044.57,27985,9.56,73818.0,-6.63,-37.51,-37.93,0,*5C
1483236045.83,27986,9.56,73818.8,-6.61,-37.69,-38.23,0,*52
1483236047.08,27987,9.56,73818.8,-6.61,-37.69,-38.11,0,*52
1483236048.31,27988,9.56,73818.8,-6.61,-37.63,-38.05,0,*52
1483236049.52,27989,9.56,73820.3,-6.59,-37.75,-38.17,0,*5C
1483236050.8,27990,9.56,73820.0,-6.63,-37.63,-38.11,0,*5C
1483236052.02,27991,9.56,73822.8,-6.61,-37.63,-38.05,0,*5A
1483236053.23,27992,9.56,73822.3,-6.61,-37.45,-37.87,0,*58
1483236054.5,27993,9.56,73820.0,-6.61,-37.69,-38.29,0,*5C
1483236055.7,27994,9.56,73818.5,-6.59,-37.57,-38.17,0,*50
1483236056.91,27995,9.56,73822.5,-6.61,-37.33,-37.87,0,*5E
1483236058.2,27996,9.56,73820.0,-6.63,-37.63,-37.93,0,*5F
1483236059.41,27997,9.56,73822.5,-6.61,-37.33,-37.87,0,*5C
1483236060.63,27998,9.56,73824.5,-6.61,-37.63,-38.05,0,*53
1483236061.89,27999,9.56,73826.0,-6.61,-37.51,-37.93,0,*53
1483236063.12,28000,9.56,73824.5,-6.61,-37.45,-37.81,0,*53
1483236064.38,28001,9.56,73826.5,-6.61,-37.51,-37.93,0,*54
1483236065.59,28002,9.56,73824.8,-6.59,-37.45,-37.87,0,*5C
1483236066.84,28003,9.56,73826.5,-6.59,-37.81,-38.35,0,*53
1483236068.1,28004,9.56,73822.5,-6.63,-37.51,-37.87,0,*56
1483236069.34,28005,9.56,73826.0,-6.59,-37.39,-37.75,0,*5D
1483236070.58,28006,9.56,73826.3,-6.59,-37.57,-37.99,0,*54
1483236071.84,28007,9.56,73828.3,-6.59,-37.63,-38.23,0,*5C
1483236073.08,28008,9.56,73826.5,-6.59,-37.39,-37.87,0,*5D
1483236074.32,28009,9.56,73826.0,-6.59,-37.63,-38.05,0,*56
1483236075.55,28010,9.56,73826.5,-6.59,-37.57,-37.99,0,*53
1483236076.83,28011,9.56,73830.5,-6.59,-37.81,-38.23,0,*57
1483236078.07,28012,9.56,73828.0,-6.59,-37.09,-37.57,0,*58
1483236079.31,28013,9.56,73822.8,-6.59,-37.09,-37.57,0,*59
1483236080.54,28014,9.56,73820.5,-6.59,-37.63,-38.05,0,*5A
1483236081.78,28015,9.56,73820.5,-6.59,-37.81,-38.17,0,*54
1483236083.01,28016,9.56,73822.8,-6.61,-38.05,-38.49,0,*54
1483236084.26,28017,9.56,73816.3,-6.59,-37.99,-38.43,0,*5E
1483236085.48,28018,9.56,73820.8,-6.59,-37.87,-38.43,0,*5E
1483236086.72,28019,9.56,73820.0,-6.59,-37.21,-37.57,0,*59
1483236087.98,28020,9.56,73826.5,-6.59,-37.63,-38.23,0,*59
1483236089.22,28021,9.56,73820.0,-6.61,-37.93,-38.43,0,*5A
1483236090.45,28022,9.56,73820.0,-6.61,-38.05,-38.49,0,*53
1483236091.66,28023,9.56,73822.8,-6.61,-37.87,-38.43,0,*5D
1483236092.88,28024,9.56,73820.3,-6.59,-37.57,-37.87,0,*5B
1483236094.15,28025,9.56,73824.0,-6.59,-37.81,-38.23,0,*50
1483236095.39,28026,9.56,73826.8,-6.59,-37.63,-38.17,0,*58
1483236096.66,28027,9.56,73828.0,-6.61,-37.81,-38.29,0,*53
1483236097.89,28028,9.56,73824.8,-6.59,-37.75,-38.23,0,*56
1483236099.13,28029,9.56,73826.0,-6.59,-37.63,-38.05,0,*54
1483236100.39,28030,9.56,73824.8,-6.59,-37.63,-38.23,0,*58
1483236101.66,28031,9.56,73826.3,-6.61,-37.81,-38.23,0,*5E
1483236102.89,28032,9.56,73830.0,-6.61,-37.33,-37.69,0,*55
1483236104.15,28033,9.56,73832.5,-6.61,-37.69,-38.29,0,*50
1483236105.38,28034,9.56,73830.0,-6.61,-37.27,-37.81,0,*50
1483236106.62,28035,9.56,73826.0,-6.61,-37.51,-37.87,0,*56
1483236107.86,28036,9.56,73816.8,-6.61,-36.97,-37.63,0,*54
1483236109.13,28037,9.56,73810.8,-6.57,-36.73,-37.21,0,*5C
1483236110.36,28038,9.56,73818.0,-6.57,-37.03,-37.45,0,*57
1483236111.6,28039,9.56,73794.3,-6.57,-37.27,-37.75,0,*53
1483236112.84,28040,9.56,73786.8,-6.55,-37.57,-37.99,0,*5A
1483236114.1,28041,9.56,73802.3,-6.57,-37.63,-38.17,0,*57
1483236115.34,28042,9.56,73800.8,-6.57,-37.45,-37.87,0,*56
1483236116.63,28043,9.56,73796.3,-6.57,-37.09,-37.63,0,*55
1483236117.87,28044,9.56,73814.8,-6.57,-37.45,-37.87,0,*50
1483236119.14,28045,9.56,73806.5,-6.57,-37.27,-37.81,0,*53
1483236120.4,28046,9.56,73798.3,-6.57,-37.45,-37.99,0,*5D
1483236121.67,28047,9.56,73780.5,-6.57,-37.63,-38.17,0,*51
1483236122.93,28048,9.56,73804.3,-6.57,-37.63,-38.05,0,*5D
1483236124.18,28049,9.56,73804.8,-6.55,-37.51,-37.93,0,*5F
1483236125.42,28050,9.56,73812.5,-6.55,-37.57,-38.11,0,*54
1483236126.68,28051,9.56,73806.3,-6.55,-37.51,-37.93,0,*56
1483236127.91,28052,9.56,73816.0,-6.55,-37.57,-37.93,0,*53
1483236129.17,28053,9.56,73816.5,-6.57,-37.63,-38.05,0,*57
1483236130.4,28054,9.56,73818.5,-6.57,-37.75,-38.05,0,*57
1483236131.64,28055,9.56,73814.3,-6.57,-37.75,-38.17,0,*55
1483236132.94,28056,9.56,73808.0,-6.57,-37.81,-38.23,0,*5A
1483236134.2,28057,9.56,73816.0,-6.57,-37.75,-37.99,0,*5E
1483236135.44,28058,9.56,73820.5,-6.55,-37.57,-37.99,0,*53
1483236136.7,28059,9.56,73816.8,-6.57,-37.63,-38.05,0,*5D
1483236137.99,28060,9.56,73822.0,-6.57,-37.63,-38.23,0,*53
1483236139.25,28061,9.56,73822.3,-6.55,-37.39,-37.99,0,*51
1483236140.49,28062,9.56,73824.0,-6.55,-37.57,-37.99,0,*5A
1483236141.75,28063,9.56,73820.0,-6.53,-36.79,-37.33,0,*50
1483236142.98,28064,9.56,73816.3,-6.55,-37.15,-37.69,0,*55
1483236144.19,28065,9.56,73816.5,-6.55,-37.33,-37.75,0,*5D
1483236145.43,28066,9.56,73818.0,-6.55,-37.15,-37.39,0,*52
1483236146.69,28067,9.56,73816.3,-6.53,-37.15,-37.51,0,*5B
1483236147.9,28068,9.56,73818.0,-6.51,-37.45,-37.87,0,*58
1483236149.13,28069,9.56,73818.0,-6.53,-37.15,-37.57,0,*53
1483236150.37,28070,9.56,73818.0,-6.55,-37.69,-38.17,0,*5D
1483236151.63,28071,9.56,73816.8,-6.53,-37.57,-37.99,0,*5E
1483236152.88,28072,9.56,73816.3,-6.53,-37.57,-37.99,0,*5D
1483236154.15,28073,9.56,73818.3,-6.53,-37.93,-38.35,0,*5D
1483236155.35,28074,9.56,73820.5,-6.55,-37.75,-38.17,0,*54
1483236156.64,28075,9.56,73818.5,-6.53,-37.21,-37.69,0,*54
1483236157.92,28076,9.56,73818.0,-6.53,-37.51,-37.81,0,*56
1483236159.18,28077,9.56,73818.8,-6.53,-37.57,-37.99,0,*58
1483236160.41,28078,9.56,73818.8,-6.53,-37.33,-37.75,0,*57
1483236161.69,28079,9.56,73822.8,-6.53,-37.51,-37.93,0,*5A
1483236162.92,28080,9.56,73822.3,-6.53,-37.75,-38.17,0,*59
1483236164.2,28081,9.56,73820.0,-6.53,-37.51,-37.93,0,*5D
1483236165.49,28082,9.56,73820.0,-6.53,-37.51,-37.81,0,*5D
1483236166.74,28083,9.56,73820.5,-6.53,-37.69,-38.17,0,*57
1483236168.0,28084,9.56,73826.3,-6.53,-37.57,-38.11,0,*5B
1483236169.26,28085,9.56,73822.3,-6.53,-37.21,-37.57,0,*56
1483236170.54,28086,9.56,73814.3,-6.53,-37.21,-37.69,0,*58
1483236171.8,28087,9.56,73806.5,-6.53,-37.33,-37.81,0,*5C
1483236173.06,28088,9.56,73812.5,-6.51,-37.51,-37.93,0,*56
1483236174.27,28089,9.56,73812.0,-6.51,-37.45,-37.87,0,*57
1483236175.5,28090,9.56,73814.0,-6.51,-37.45,-37.93,0,*5A
1483236176.74,28091,9.56,73814.5,-6.51,-36.85,-37.21,0,*5F
1483236177.98,28092,9.56,73810.0,-6.47,-37.03,-37.39,0,*5D
1483236179.21,28093,9.56,73818.0,-6.51,-37.45,-37.93,0,*59
1483236180.46,28094,9.56,73818.0,-6.51,-37.63,-38.11,0,*5F
1483236181.67,28095,9.56,73816.8,-6.51,-37.45,-37.75,0,*57
1483236182.92,28096,9.56,73812.8,-6.51,-37.69,-38.11,0,*57
1483236184.16,28097,9.56,73812.8,-6.51,-37.51,-37.75,0,*50
1483236185.42,28098,9.56,73814.5,-6.51,-37.51,-38.11,0,*52
1483236186.67,28099,9.56,73812.5,-6.51,-37.51,-37.93,0,*56
1483236187.9,28100,9.56,73812.8,-6.47,-37.63,-38.05,0,*51
1483236189.16,28101,9.56,73816.8,-6.51,-37.51,-37.93,0,*56
1483236190.37,28102,9.56,73814.0,-6.47,-37.57,-37.87,0,*51
1483236191.57,28103,9.56,73816.5,-6.47,-37.57,-38.05,0,*55
1483236192.81,28104,9.56,73816.0,-6.47,-37.57,-37.99,0,*58
1483236194.04,28105,9.56,73816.3,-6.47,-37.39,-37.87,0,*5E
1483236195.28,28106,9.56,73818.3,-6.47,-37.45,-37.81,0,*50
1483236196.51,28107,9.56,73816.8,-6.45,-37.57,-37.87,0,*56
1483236197.75,28108,9.56,73818.3,-6.47,-37.57,-37.99,0,*54
1483236198.98,28109,9.56,73818.3,-6.47,-37.63,-38.05,0,*58
1483236200.19,28110,9.56,73812.0,-6.51,-37.45,-37.87,0,*56
1483236201.42,28111,9.56,73818.0,-6.47,-37.63,-38.05,0,*51
1483236202.66,28112,9.56,73816.5,-6.51,-37.87,-38.29,0,*51
1483236203.87,28113,9.56,73814.3,-6.47,-37.45,-37.87,0,*52
1483236205.07,28114,9.56,73814.5,-6.47,-37.57,-38.05,0,*53
1483236206.31,28115,9.56,73812.8,-6.51,-37.87,-38.23,0,*5C
1483236207.57,28116,9.56,73812.8,-6.47,-37.39,-37.69,0,*5C
1483236208.8,28117,9.56,73818.5,-6.45,-37.45,-37.87,0,*54
1483236210.06,28118,9.56,73816.5,-6.47,-37.69,-38.23,0,*56
1483236211.3,28119,9.56,73816.3,-6.47,-37.99,-38.35,0,*5F
1483236212.57,28120,9.56,73814.8,-6.47,-37.81,-38.23,0,*5B
1483236213.82,28121,9.56,73812.0,-6.51,-37.69,-38.11,0,*5A
1483236215.03,28122,9.56,73816.8,-6.51,-38.05,-38.43,0,*5B
1483236216.28,28123,9.56,73816.3,-6.51,-37.87,-38.23,0,*59
1483236217.54,28124,9.56,73812.0,-6.51,-37.69,-38.23,0,*5E
1483236218.8,28125,9.56,73812.5,-6.53,-37.99,-38.35,0,*55
1483236220.05,28126,9.56,73812.3,-6.53,-37.57,-38.11,0,*52
1483236221.29,28127,9.56,73812.3,-6.51,-37.75,-38.23,0,*50
1483236222.55,28128,9.56,73810.0,-6.53,-37.99,-38.35,0,*58
1483236223.81,28129,9.56,73810.5,-6.53,-37.93,-38.35,0,*53
1483236225.06,28130,9.56,73812.8,-6.53,-37.69,-38.17,0,*5E
1483236226.32,28131,9.56,73810.5,-6.55,-37.51,-37.93,0,*51
1483236227.59,28132,9.56,73812.3,-6.53,-37.81,-38.35,0,*5A
1483236228.85,28133,9.56,73814.8,-6.53,-37.93,-38.35,0,*58
1483236230.11,28134,9.56,73814.3,-6.53,-37.75,-38.29,0,*5A
1483236231.34,28135,9.56,73810.8,-6.55,-37.75,-38.11,0,*56
1483236232.6,28136,9.56,73810.8,-6.51,-37.63,-38.11,0,*56
1483236233.86,28137,9.56,73810.8,-6.51,-37.69,-38.11,0,*5D
1483236235.11,28138,9.56,73812.5,-6.51,-37.69,-38.11,0,*52
1483236236.38,28139,9.56,73814.0,-6.51,-37.99,-38.29,0,*57
1483236237.64,28140,9.56,73816.3,-6.53,-37.75,-38.29,0,*59
1483236238.91,28141,9.56,73812.3,-6.53,-37.69,-38.11,0,*5E
1483236240.2,28142,9.56,73804.3,-6.53,-37.39,-37.81,0,*5E
1483236241.48,28143,9.56,73796.8,-6.53,-37.69,-38.11,0,*5C
1483236242.76,28144,9.56,73804.5,-6.53,-37.39,-37.81,0,*58
1483236244.02,28145,9.56,73808.8,-6.53,-37.57,-37.93,0,*52
1483236245.3,28146,9.56,73804.5,-6.53,-37.51,-37.81,0,*54
1483236246.56,28147,9.56,73800.5,-6.53,-37.33,-37.81,0,*51
1483236247.82,28148,9.56,73802.8,-6.53,-37.21,-37.57,0,*56
1483236249.08,28149,9.56,73814.8,-6.53,-37.57,-37.93,0,*5E
1483236250.31,28150,9.56,73814.0,-6.53,-37.57,-38.17,0,*55
1483236251.57,28151,9.56,73806.5,-6.53,-37.57,-37.99,0,*5D
1483236252.8,28152,9.56,73804.0,-6.53,-37.75,-38.17,0,*57
1483236254.05,28153,9.56,73806.0,-6.51,-37.69,-38.11,0,*5F
1483236255.31,28154,9.56,73806.5,-6.53,-37.03,-37.51,0,*5D
1483236256.55,28155,9.56,73808.0,-6.47,-37.45,-37.81,0,*56
1483236257.8,28156,9.56,73810.3,-6.47,-37.63,-38.11,0,*57
1483236259.03,28157,9.56,73810.5,-6.51,-37.51,-38.05,0,*55
1483236260.29,28158,9.56,73812.0,-6.51,-37.69,-38.29,0,*5F
1483236261.55,28159,9.56,73814.8,-6.51,-37.69,-38.11,0,*55
1483236262.81,28160,9.56,73812.3,-6.51,-37.51,-37.93,0,*51
1483236264.01,28161,9.56,73812.3,-6.47,-37.57,-38.05,0,*51
1483236265.27,28162,9.56,73814.3,-6.51,-37.63,-38.11,0,*57
1483236266.49,28163,9.56,73814.0,-6.47,-37.63,-38.05,0,*54
1483236267.76,28164,9.56,73814.0,-6.47,-37.81,-38.23,0,*5B
1483236269.0,28165,9.56,73812.8,-6.51,-37.63,-37.87,0,*50
1483236270.23,28166,9.56,73812.3,-6.47,-37.63,-38.05,0,*51
1483236271.44,28167,9.56,73812.3,-6.51,-37.45,-37.75,0,*5B
1483236272.69,28168,9.56,73812.5,-6.51,-37.63,-38.11,0,*5D
1483236273.93,28169,9.56,73814.3,-6.47,-37.45,-37.81,0,*59
1483236275.19,28170,9.56,73810.5,-6.51,-37.69,-38.23,0,*5F
1483236276.42,28171,9.56,73812.3,-6.51,-37.63,-38.05,0,*50
1483236277.66,28172,9.56,73808.5,-6.51,-37.87,-38.23,0,*5D
1483236278.93,28173,9.56,73810.0,-6.47,-37.81,-38.23,0,*5D
1483236280.19,28174,9.56,73810.3,-6.51,-37.63,-38.23,0,*51
1483236281.48,28175,9.56,73810.3,-6.53,-37.81,-38.29,0,*54
1483236282.72,28176,9.56,73808.3,-6.51,-37.75,-38.23,0,*54
1483236283.98,28177,9.56,73814.8,-6.53,-37.93,-38.35,0,*58
1483236285.22,28178,9.56,73810.5,-6.55,-38.11,-38.55,0,*52
1483236286.47,28179,9.56,73814.5,-6.51,-37.63,-37.93,0,*58
1483236287.73,28180,9.56,73810.5,-6.51,-37.51,-37.93,0,*5F
1483236288.97,28181,9.56,73812.3,-6.51,-37.93,-38.43,0,*52
1483236290.23,28182,9.56,73812.5,-6.53,-37.75,-38.29,0,*57
1483236291.51,28183,9.56,73818.0,-6.53,-37.93,-38.49,0,*58
1483236292.78,28184,9.56,73816.5,-6.53,-37.81,-38.35,0,*57
1483236294.04,28185,9.56,73818.8,-6.53,-37.99,-38.55,0,*59
1483236295.33,28186,9.56,73812.8,-6.53,-37.69,-37.99,0,*5A
1483236296.55,28187,9.56,73812.8,-6.53,-37.75,-38.17,0,*5F
1483236297.85,28188,9.56,73814.5,-6.53,-37.81,-38.29,0,*56
1483236299.1,28189,9.56,73814.5,-6.51,-37.69,-38.11,0,*58
1483236300.37,28190,9.56,73814.5,-6.51,-37.93,-38.49,0,*58
1483236301.64,28191,9.56,73820.3,-6.55,-37.81,-38.29,0,*58
1483236302.9,28192,9.56,73818.5,-6.53,-37.81,-38.35,0,*50
1483236304.17,28193,9.56,73814.0,-6.55,-37.69,-37.93,0,*52
1483236305.37,28194,9.56,73816.8,-6.51,-37.75,-38.43,0,*5E
1483236306.66,28195,9.56,73818.0,-6.53,-37.93,-38.49,0,*5F
1483236307.92,28196,9.56,73820.8,-6.53,-37.81,-38.17,0,*54
1483236309.18,28197,9.56,73816.8,-6.51,-37.69,-38.11,0,*57
1483236310.44,28198,9.56,73818.3,-6.53,-37.93,-38.35,0,*59
1483236311.72,28199,9.56,73816.3,-6.53,-38.11,-38.49,0,*56
1483236312.98,28200,9.56,73818.5,-6.53,-38.11,-38.55,0,*58
1483236314.26,28201,9.56,73820.0,-6.53,-37.99,-38.49,0,*5B
1483236315.52,28202,9.56,73818.5,-6.55,-37.99,-38.49,0,*5E
1483236316.79,28203,9.56,73818.0,-6.55,-37.51,-37.81,0,*50
1483236318.03,28204,9.56,73814.5,-6.55,-37.75,-38.29,0,*5C
1483236319.3,28205,9.56,73814.0,-6.55,-37.81,-38.29,0,*56
1483236320.54,28206,9.56,73810.8,-6.55,-37.75,-38.29,0,*5E
1483236321.81,28207,9.56,73812.0,-6.55,-37.81,-38.29,0,*54
1483236323.08,28208,9.56,73814.3,-6.55,-37.93,-38.49,0,*5E
1483236324.31,28209,9.56,73808.8,-6.55,-37.93,-38.35,0,*54
1483236325.57,28210,9.56,73814.8,-6.53,-37.57,-38.11,0,*54
1483236326.83,28211,9.56,73816.8,-6.55,-37.69,-37.99,0,*51
1483236328.12,28212,9.56,73814.5,-6.53,-37.93,-38.29,0,*55
1483236329.38,28213,9.56,73806.5,-6.55,-37.93,-38.29,0,*52
1483236330.64,28214,9.56,73806.0,-6.53,-37.69,-38.17,0,*5B
1483236331.9,28215,9.56,73814.0,-6.53,-37.69,-38.17,0,*5A
1483236333.13,28216,9.56,73820.3,-6.55,-37.69,-38.17,0,*5F
1483236334.43,28217,9.56,73816.5,-6.53,-37.81,-38.29,0,*53
1483236335.7,28218,9.56,73814.8,-6.55,-37.81,-38.29,0,*5A
1483236336.93,28219,9.56,73816.3,-6.53,-37.75,-38.17,0,*5B
1483236338.17,28220,9.56,73818.3,-6.55,-37.75,-38.29,0,*5A
1483236339.43,28221,9.56,73814.3,-6.55,-37.99,-38.49,0,*5F
1483236340.7,28222,9.56,73818.3,-6.55,-37.93,-38.29,0,*50
1483236341.96,28223,9.56,73814.3,-6.55,-37.51,-37.93,0,*51
1483236343.21,28224,9.56,73816.3,-6.53,-37.57,-37.93,0,*56
1483236344.44,28225,9.56,73818.0,-6.55,-37.57,-38.11,0,*54
1483236345.7,28226,9.56,73818.8,-6.55,-37.69,-38.11,0,*5A
1483236346.94,28227,9.56,73820.3,-6.55,-37.93,-38.35,0,*58
1483236348.22,28228,9.56,73816.5,-6.53,-37.69,-38.11,0,*52
1483236349.45,28229,9.56,73820.0,-6.53,-37.75,-38.17,0,*58
1483236350.66,28230,9.56,73814.3,-6.55,-37.75,-38.17,0,*56
1483236351.89,28231,9.56,73816.8,-6.53,-37.75,-38.35,0,*51
1483236353.18,28232,9.56,73812.8,-6.53,-37.99,-38.49,0,*5B
1483236354.44,28233,9.56,73812.3,-6.55,-37.93,-38.49,0,*56
1483236355.67,28234,9.56,73806.5,-6.55,-37.57,-37.93,0,*51
1483236356.91,28235,9.56,73796.3,-6.55,-37.75,-38.29,0,*5E
1483236358.16,28236,9.56,73800.3,-6.55,-37.81,-38.35,0,*5B
1483236359.4,28237,9.56,73800.0,-6.55,-37.57,-37.99,0,*58
1483236360.64,28238,9.56,73804.5,-6.55,-37.57,-37.99,0,*57
1483236361.87,28239,9.56,73808.5,-6.55,-37.57,-38.11,0,*59
1483236363.08,28240,9.56,73814.0,-6.55,-37.57,-38.17,0,*51
1483236364.36,28241,9.56,73812.5,-6.53,-37.69,-38.11,0,*5D
1483236365.62,28242,9.56,73808.5,-6.55,-37.69,-38.11,0,*58
1483236366.87,28243,9.56,73808.3,-6.53,-37.51,-37.75,0,*59
1483236368.16,28244,9.56,73808.0,-6.53,-37.39,-37.81,0,*5B
1483236369.42,28245,9.56,73806.5,-6.53,-37.57,-37.99,0,*5B
1483236370.7,28246,9.56,73808.0,-6.53,-37.51,-37.93,0,*54
1483236371.96,28247,9.56,73816.3,-6.53,-37.81,-38.35,0,*5B
1483236373.24,28248,9.56,73832.3,-6.53,-37.69,-38.11,0,*54
1483236374.51,28249,9.56,73828.3,-6.53,-37.21,-37.57,0,*54
1483236375.76,28250,9.56,73822.3,-6.53,-36.61,-36.97,0,*54
1483236377.0,28251,9.56,73812.0,-6.51,-36.73,-37.09,0,*52
1483236378.21,28252,9.56,73788.5,-6.47,-36.73,-37.03,0,*5C
1483236379.45,28253,9.56,73786.5,-6.47,-36.67,-37.09,0,*52
1483236380.65,28254,9.56,73788.5,-6.47,-36.85,-37.27,0,*55
1483236381.86,28255,9.56,73784.8,-6.47,-36.67,-37.03,0,*5E
1483236383.07,28256,9.56,73796.5,-6.47,-37.03,-37.45,0,*5C
1483236384.28,28257,9.56,73798.5,-6.47,-37.45,-37.87,0,*51
1483236385.51,28258,9.56,73784.5,-6.47,-37.09,-37.45,0,*58
1483236386.77,28259,9.56,73778.8,-6.45,-37.09,-37.57,0,*58
1483236387.99,28260,9.56,73778.8,-6.43,-36.91,-37.27,0,*53
1483236389.25,28261,9.56,73806.8,-6.45,-36.73,-37.09,0,*54
1483236390.51,28262,9.56,73816.3,-6.45,-36.73,-37.09,0,*57
1483236391.72,28263,9.56,73810.8,-6.43,-36.43,-36.85,0,*56
1483236392.92,28264,9.56,73810.8,-6.43,-37.03,-37.57,0,*5A
1483236394.15,28265,9.56,73810.3,-6.43,-37.27,-37.69,0,*50
1483236395.43,28266,9.56,73814.8,-6.41,-37.39,-37.81,0,*58
1483236396.67,28267,9.56,73818.8,-6.43,-37.39,-37.87,0,*5D
1483236397.93,28268,9.56,73818.5,-6.41,-37.57,-37.99,0,*57
1483236399.16,28269,9.56,73812.5,-6.41,-37.33,-37.75,0,*56
1483236400.42,28270,9.56,73816.3,-6.41,-37.57,-37.99,0,*5E
1483236401.67,28271,9.56,73818.5,-6.41,-37.57,-37.99,0,*5F
1483236402.96,28272,9.56,73820.8,-6.41,-37.63,-37.99,0,*5B
1483236404.21,28273,9.56,73822.0,-6.41,-37.75,-38.11,0,*52
1483236405.42,28274,9.56,73812.8,-6.39,-37.75,-38.17,0,*5C
1483236406.67,28275,9.56,73812.3,-6.41,-37.93,-38.17,0,*5A
1483236407.94,28276,9.56,73814.3,-6.43,-37.81,-38.23,0,*5F
1483236409.15,28277,9.56,73822.8,-6.43,-37.87,-38.35,0,*5F
1483236410.38,28278,9.56,73816.8,-6.43,-37.27,-37.69,0,*5C
1483236411.61,28279,9.56,73810.0,-6.43,-37.45,-37.99,0,*56
1483236412.88,28280,9.56,73812.5,-6.43,-37.81,-38.23,0,*56
1483236414.15,28281,9.56,73812.0,-6.41,-37.63,-38.11,0,*58
1483236415.41,28282,9.56,73812.3,-6.43,-37.63,-38.23,0,*58
1483236416.61,28283,9.56,73812.3,-6.43,-37.57,-38.05,0,*5A
1483236417.85,28284,9.56,73812.8,-6.43,-37.57,-37.99,0,*57
1483236419.11,28285,9.56,73818.8,-6.43,-37.81,-38.23,0,*53
1483236420.37,28286,9.56,73818.8,-6.43,-37.69,-38.23,0,*56
1483236421.61,28287,9.56,73814.5,-6.43,-37.39,-37.87,0,*53
1483236422.83,28288,9.56,73812.8,-6.43,-37.69,-38.05,0,*5C
1483236424.09,28289,9.56,73816.3,-6.45,-37.69,-38.17,0,*58
1483236425.3,28290,9.56,73814.8,-6.43,-37.87,-38.35,0,*56
1483236426.57,28291,9.56,73814.0,-6.43,-37.81,-38.23,0,*56
1483236427.79,28292,9.56,73810.0,-6.43,-37.63,-38.05,0,*5D
1483236429.03,28293,9.56,73808.3,-6.43,-37.39,-37.87,0,*56
1483236430.25,28294,9.56,73816.5,-6.43,-37.27,-37.69,0,*5E
1483236431.51,28295,9.56,73818.3,-6.43,-37.39,-37.69,0,*50
1483236432.74,28296,9.56,73808.3,-6.43,-37.69,-38.17,0,*50
1483236433.99,28297,9.56,73810.8,-6.41,-37.39,-37.75,0,*5D
1483236435.27,28298,9.56,73810.8,-6.41,-37.51,-37.93,0,*54
1483236436.56,28299,9.56,73808.3,-6.41,-37.51,-37.99,0,*5F
1483236437.79,28300,9.56,73810.8,-6.43,-37.69,-38.17,0,*5E
1483236439.04,28301,9.56,73808.0,-6.45,-37.69,-38.17,0,*59
1483236440.31,28302,9.56,73814.0,-6.45,-37.87,-38.23,0,*5D
1483236441.57,28303,9.56,73810.3,-6.43,-37.69,-38.23,0,*5A
1483236442.78,28304,9.56,73812.3,-6.43,-37.87,-38.35,0,*5A
1483236444.05,28305,9.56,73806.5,-6.43,-37.81,-38.23,0,*5A
1483236445.29,28306,9.56,73810.8,-6.45,-37.87,-38.43,0,*5F
1483236446.52,28307,9.56,73808.3,-6.43,-37.27,-37.81,0,*53
1483236447.73,28308,9.56,73804.8,-6.43,-37.45,-37.87,0,*5E
1483236448.98,28309,9.56,73804.8,-6.41,-37.57,-37.99,0,*51
1483236450.22,28310,9.56,73810.5,-6.43,-37.81,-38.05,0,*5A
1483236451.45,28311,9.56,73812.8,-6.43,-37.57,-37.99,0,*5A
1483236452.73,28312,9.56,73814.5,-6.45,-37.39,-37.81,0,*5E
1483236454.0,28313,9.56,73820.0,-6.45,-37.27,-37.63,0,*5C
1483236455.2,28314,9.56,73810.8,-6.43,-37.27,-37.57,0,*5A
1483236456.41,28315,9.56,73804.0,-6.43,-36.67,-37.03,0,*5F
1483236457.64,28316,9.56,73796.3,-6.41,-36.97,-37.33,0,*52
1483236458.9,28317,9.56,73808.0,-6.41,-37.21,-37.57,0,*5D
1483236460.16,28318,9.56,73804.8,-6.39,-36.79,-37.21,0,*50
1483236461.4,28319,9.56,73804.5,-6.39,-37.21,-37.57,0,*5C
1483236462.66,28320,9.56,73800.8,-6.39,-37.51,-37.93,0,*59
1483236463.91,28321,9.56,73802.0,-6.41,-37.39,-37.75,0,*51
1483236465.17,28322,9.56,73808.3,-6.39,-37.39,-37.81,0,*56
1483236466.44,28323,9.56,73812.5,-6.39,-37.51,-37.99,0,*50
1483236467.72,28324,9.56,73810.3,-6.41,-37.51,-37.99,0,*58
1483236468.95,28325,9.56,73814.3,-6.39,-37.51,-37.75,0,*54
1483236470.21,28326,9.56,73812.5,-6.41,-37.63,-38.17,0,*52
1483236471.41,28327,9.56,73814.0,-6.39,-37.75,-38.17,0,*5B
1483236472.68,28328,9.56,73816.0,-6.39,-37.81,-38.29,0,*52
1483236473.94,28329,9.56,73814.3,-6.39,-37.63,-38.11,0,*54
1483236475.17,28330,9.56,73814.8,-6.39,-37.57,-38.11,0,*5B
1483236476.45,28331,9.56,73816.5,-6.41,-37.93,-38.29,0,*56
1483236477.73,28332,9.56,73818.0,-6.41,-37.51,-37.93,0,*55
1483236478.99,28333,9.56,73818.3,-6.41,-37.57,-37.99,0,*58
1483236480.22,28334,9.56,73814.5,-6.39,-37.63,-38.17,0,*5E
1483236481.5,28335,9.56,73812.0,-6.41,-37.63,-38.11,0,*56
1483236482.73,28336,9.56,73806.8,-6.39,-37.57,-38.11,0,*5D
1483236483.98,28337,9.56,73806.3,-6.41,-37.57,-38.11,0,*53
1483236485.22,28338,9.56,73802.3,-6.39,-37.63,-38.17,0,*52
1483236486.48,28339,9.56,73802.8,-6.41,-37.81,-38.17,0,*50
1483236487.76,28340,9.56,73802.3,-6.41,-37.63,-38.11,0,*54
1483236489.04,28341,9.56,73800.8,-6.41,-37.51,-37.93,0,*51
1483236490.32,28342,9.56,73798.0,-6.41,-37.63,-37.99,0,*59
1483236491.61,28343,9.56,73788.0,-6.41,-37.51,-37.99,0,*59
1483236492.89,28344,9.56,73794.0,-6.41,-37.51,-37.99,0,*5E
1483236494.18,28345,9.56,73802.0,-6.41,-37.63,-37.99,0,*5E
1483236495.41,28346,9.56,73798.8,-6.41,-37.33,-37.57,0,*5A
1483236496.67,28347,9.56,73796.5,-6.39,-37.39,-37.81,0,*55
1483236497.95,28348,9.56,73802.3,-6.41,-37.63,-37.99,0,*53
1483236499.21,28349,9.56,73802.0,-6.39,-37.51,-37.93,0,*56
1483236500.44,28350,9.56,73802.5,-6.41,-37.75,-38.17,0,*54
1483236501.67,28351,9.56,73806.5,-6.41,-37.75,-38.17,0,*55
1483236502.93,28352,9.56,73808.0,-6.39,-37.51,-37.99,0,*56
1483236504.21,28353,9.56,73802.0,-6.41,-37.63,-38.11,0,*56
1483236505.44,28354,9.56,73796.3,-6.39,-37.57,-38.11,0,*59
1483236506.71,28355,9.56,73792.3,-6.41,-37.63,-38.11,0,*50
1483236507.92,28356,9.56,73786.8,-6.39,-37.75,-38.17,0,*5D